This is the latest recevied weather packets stored in our database for station/object KE5YIM-13. If no packets are shown the sender has not sent any weather packets the latest 10 day(s).
| Time | Temp. | Humidity | Pressure | Rain* | Wind** | Luminosity | Snow |
|---|---|---|---|---|---|---|---|
| 1777209126 | 6.67° C | 97% | 1021.1 hPa | 0 mm | - | 310 W/m² | - |
| 1777208822 | 6.67° C | 98% | 1020.9 hPa | 0 mm | - | 336 W/m² | - |
| 1777208520 | 6.67° C | 98% | 1020.9 hPa | 0 mm | - | 242 W/m² | - |
| 1777208216 | 6.11° C | 98% | 1020.9 hPa | 0 mm | - | 166 W/m² | - |
| 1777207911 | 6.67° C | 99% | 1021 hPa | 0 mm | - | 178 W/m² | - |
| 1777207606 | 6.67° C | 99% | 1020.8 hPa | 0 mm | - | 186 W/m² | - |
| 1777207302 | 6.11° C | 99% | 1020.5 hPa | 0 mm | - | 180 W/m² | - |
| 1777207002 | 6.11° C | 99% | 1020.6 hPa | 0 mm | - | 161 W/m² | - |
| 1777206698 | 6.11° C | 99% | 1020.8 hPa | 0 mm | - | 138 W/m² | - |
| 1777206393 | 6.11° C | 99% | 1020.6 hPa | 0 mm | - | 114 W/m² | - |
| 1777206088 | 5.56° C | 99% | 1020.6 hPa | 0 mm | - | 98 W/m² | - |
| 1777205785 | 5.56° C | 99% | 1020.8 hPa | 0 mm | - | 91 W/m² | - |
| 1777205482 | 5.56° C | 99% | 1020.6 hPa | 0 mm | - | 92 W/m² | - |
| 1777205177 | 5.56° C | 99% | 1020.6 hPa | 0 mm | - | 96 W/m² | - |
| 1777204874 | 6.11° C | 99% | 1020.4 hPa | 0 mm | - | 105 W/m² | - |
| 1777204569 | 5.56° C | 99% | 1020.4 hPa | 0 mm | - | 114 W/m² | - |
| 1777204265 | 5.56° C | 99% | 1020.3 hPa | 0 mm | - | 117 W/m² | - |
| 1777203961 | 5.56° C | 99% | 1020.4 hPa | 0 mm | - | 122 W/m² | - |
| 1777203655 | 5.56° C | 99% | 1020.1 hPa | 0 mm | - | 101 W/m² | - |
| 1777203351 | 5.56° C | 99% | 1020.2 hPa | 0 mm | - | 79 W/m² | - |
| 1777203048 | 5.56° C | 99% | 1020.1 hPa | 0 mm | - | 64 W/m² | - |
| 1777202745 | 5.56° C | 99% | 1020.2 hPa | 0 mm | - | 50 W/m² | - |
| 1777202443 | 5° C | 99% | 1020 hPa | 0 mm | - | 45 W/m² | - |
| 1777202138 | 5° C | 99% | 1020 hPa | 0 mm | - | 45 W/m² | - |
| 1777201834 | 5° C | 99% | 1020 hPa | 0 mm | - | 46 W/m² | - |
* Rain latest hour (hover to see other rain measurements)
** Current wind speed in m/s (hover to see current wind gust speed)